Find Starlink 5383

NORAD ID: 54827 Int'l Des: 2022-177 Owner: SPXS Country: US Constellation: starlink operational
LEOCIRCULAR

当前视图

正在加载3D地球...

About Starlink 5383

Starlink 5383 (NORAD 54827) is a starlink constellation satellite (v1.5) launched Dec 28, 2022 by SPXS of US. It operates in LEO, CIRCULAR orbit with a mass of 305.00 kg.

关于 Starlink 5383

正在加载描述...

即将过境

Passes for default location (London). Set your location on the main map for personalized predictions.

高度历史

Loading altitude history...

两行轨道根数

1 54827U 22177H 26193.85382596 .00000637 00000-0 32691-4 0 9993
2 54827 43.0031 149.3635 0001047 269.2563 90.8169 15.27566422196060
Epoch: Jul 12, 2026 • Age: 4 hours

当前状态

高度 495.6 km
远地点 / 近地点 N/A
速度 7.62 km/s
星下点 -42.96°S, 121.74°E
发射日期 Dec 28, 2022
运行时间 3.5 years
类型 internet

技术详情

分类 Payload
质量 305.00 kg
干质量 290.00 kg
总质量 305.00 kg
长度 0.20 m
直径 2.80 m
跨度 9.00 m
形状 Box + pan
制造商 SPXS
平台类型 Starlink
阶段状态 In Orbit
所有者/国家 SPXS/US

Most Searched